Location: Brivio
(45.7333°N, 9.4500°E)
Time: 20:07:19
(UTC+00:00)

N. Korean satellite - Pass Details

Date: 10 December 2019
Orbit: 454 x 507 km, 97.2° (Epoch: 28 January)

Event Time Altitude Azimuth Distance (km) Brightness Sun altitude
Rises 04:59:57 0° 17° (NNE) 2,554 10.3 -18.7°
Reaches altitude 10° 05:02:05 10° 22° (NNE) 1,660 9.4 -18.3°
Maximum altitude 05:05:34 50° 99° (E) 609 7.4 -17.7°
Drops below altitude 10° 05:08:57 10° 176° (S) 1,617 9.4 -17.1°
Sets 05:11:00 0° 182° (S) 2,480 10.3 -16.8°
